sat.trackr.live / text

‹ back to catalog

STARLINK-32445

NORAD 61546 · 2024-184Q

PAYLOAD ACTIVE UNKNOWN

§ Identity

Operator
Country
US
Launch date
2024-10-15
Launch site
AFWTR
Launch vehicle
Mass (kg)
RCS (m²)

Purposes: comms

External: N2YO · Heavens-Above · Gunter

§ Orbital elements

Epoch: 2026-09-21T01:33:08.744256Z

Period
93.66 min
Inclination
53.1565°
Eccentricity
0.0002721
Mean motion
15.37442224 rev/d
Perigee alt
451.8 km
Apogee alt
455.5 km
Semi-major
6,831.8 km
B*
5.3087e-4
RAAN
181.9154°
Arg perigee
70.5259°
Mean anomaly
289.6038°
Rev number
10,848

§ Raw data

STARLINK-324451 61546U 24184Q   26264.06468454  .00019438  00000+0  53087-3 0  99982 61546  53.1565 181.9154 0002721  70.5259 289.6038 15.37442224108489

JSON: /api/v1/satellites/61546 · /tle

For live sub-satellite position, see the globe view (requires WebGL).

§ Visibility from observer

Set your observer location to see the next 7 days of passes ≥ 10°. The values pass through the URL so the page stays shareable.

No JS? Fill the form by hand. The geolocation button needs JavaScript.